1499313601.16,2993,17.31,74126.8,2.61,-5.35,-11.97,0,*74
1499313602.38,2994,17.25,74124.3,2.61,-5.23,-12.21,0,*7A
1499313603.62,2995,17.25,74124.5,2.61,-5.07,-12.57,0,*7C
1499313604.83,2996,17.25,74122.0,2.61,-5.19,-12.97,0,*7C
1499313606.04,2997,17.25,74122.5,2.61,-4.99,-12.83,0,*71
1499313607.25,2998,17.25,74114.8,2.61,-5.11,-12.97,0,*7A
1499313608.49,2999,17.25,74116.8,2.61,-5.07,-12.83,0,*79
1499313609.72,3000,17.31,74118.8,2.59,-5.11,-12.89,0,*77
1499313610.96,3001,17.25,74116.0,2.61,-5.11,-12.83,0,*77
1499313612.22,3002,17.25,74114.3,2.59,-5.11,-12.83,0,*7F
1499313613.46,3003,17.25,74118.8,2.61,-5.27,-12.71,0,*7D
1499313614.67,3004,17.25,74116.3,2.61,-5.11,-12.25,0,*7E
1499313615.93,3005,17.25,74118.5,2.59,-5.03,-12.15,0,*74
1499313617.14,3006,17.25,74116.8,2.61,-5.11,-12.21,0,*78
1499313618.36,3007,17.31,74120.8,2.61,-5.07,-12.25,0,*7A
1499313619.6,3008,17.25,74124.8,2.61,-5.07,-12.57,0,*70
1499313620.81,3009,17.31,74130.8,2.61,-5.07,-12.97,0,*7D
1499313622.07,3010,17.31,74132.8,2.59,-5.11,-13.29,0,*7D
1499313623.34,3011,17.25,74132.3,2.59,-5.03,-13.33,0,*74
1499313624.56,3012,17.25,74132.8,2.61,-4.93,-13.37,0,*70
1499313625.82,3013,17.25,74136.5,2.59,-5.11,-13.61,0,*72
1499313627.0,3014,17.31,74144.0,2.61,-4.99,-13.51,0,*7C
1499313628.18,3015,17.25,74142.3,2.61,-4.99,-13.65,0,*7A
1499313629.4,3016,17.31,74138.3,2.61,-5.11,-13.79,0,*75
1499313630.63,3017,17.31,74140.0,2.61,-5.07,-13.79,0,*73
1499313631.86,3018,17.25,74134.5,2.61,-5.11,-13.79,0,*7B
1499313633.09,3019,17.25,74132.5,2.61,-5.11,-13.83,0,*7F
1499313634.29,3020,17.31,74134.8,2.61,-5.19,-13.93,0,*7C
1499313635.56,3021,17.31,74136.0,2.59,-5.27,-13.97,0,*7F
1499313636.77,3022,17.25,74134.0,2.61,-5.23,-13.93,0,*77
1499313638.0,3023,17.31,74130.5,2.61,-5.23,-13.83,0,*77
1499313639.22,3024,17.25,74128.8,2.61,-5.35,-13.97,0,*72
1499313640.42,3025,17.25,74126.3,2.59,-5.43,-14.11,0,*70
1499313641.63,3026,17.31,74126.5,2.61,-5.35,-13.83,0,*75
1499313642.86,3027,17.31,74126.0,2.59,-5.39,-13.87,0,*77
1499313644.13,3028,17.31,74126.8,2.59,-5.27,-13.97,0,*76
1499313645.37,3029,17.31,74124.5,2.59,-5.39,-13.97,0,*78
1499313646.57,3030,17.31,74132.3,2.61,-5.31,-13.93,0,*77
1499313647.78,3031,17.25,74128.8,2.61,-5.35,-13.83,0,*73
1499313648.96,3032,17.25,74130.8,2.61,-5.35,-13.93,0,*71
1499313650.2,3033,17.31,74136.0,2.59,-5.43,-13.97,0,*7E
1499313651.44,3034,17.31,74132.8,2.59,-5.39,-13.97,0,*74
1499313652.65,3035,17.31,74138.8,2.61,-5.35,-13.83,0,*77
1499313653.85,3036,17.31,74138.3,2.59,-5.43,-14.11,0,*72
1499313655.06,3037,17.31,74142.5,2.61,-5.39,-13.97,0,*7C
1499313656.25,3038,17.31,74138.5,2.61,-5.47,-14.23,0,*72
1499313657.48,3039,17.31,74140.8,2.61,-5.61,-14.43,0,*71
1499313658.7,3040,17.25,74142.8,2.59,-5.51,-14.33,0,*70
1499313659.89,3041,17.31,74144.3,2.61,-5.47,-14.23,0,*7C
1499313661.08,3042,17.31,74148.0,2.61,-5.47,-14.15,0,*7A
1499313662.29,3043,17.31,74146.0,2.61,-5.47,-14.05,0,*7A
1499313663.52,3044,17.25,74142.8,2.61,-5.65,-14.43,0,*7F
1499313664.76,3045,17.31,74138.8,2.59,-5.81,-14.69,0,*77
1499313666.0,3046,17.31,74132.8,2.59,-6.01,-14.83,0,*7B
1499313667.24,3047,17.25,74122.5,2.59,-6.01,-14.75,0,*73
1499313668.47,3048,17.25,74112.8,2.59,-5.81,-14.69,0,*7A
1499313669.74,3049,17.25,74108.5,2.59,-5.77,-14.47,0,*7E
1499313671.01,3050,17.31,74114.0,2.59,-5.77,-14.55,0,*75
1499313672.25,3051,17.31,74114.8,2.59,-5.77,-14.61,0,*73
1499313673.49,3052,17.31,74116.5,2.59,-5.89,-14.61,0,*71
1499313674.75,3053,17.31,74122.8,2.59,-5.65,-14.43,0,*72
1499313676.0,3054,17.31,74132.8,2.59,-5.65,-14.43,0,*75
1499313677.2,3055,17.31,74128.8,2.57,-5.55,-14.33,0,*7E
1499313678.39,3056,17.31,74130.5,2.57,-5.51,-14.33,0,*79
1499313679.58,3057,17.31,74134.5,2.57,-5.55,-14.33,0,*7C
1499313680.77,3058,17.31,74134.3,2.57,-5.55,-14.33,0,*73
1499313681.99,3059,17.31,74134.8,2.57,-5.55,-14.47,0,*71
1499313683.21,3060,17.31,74130.3,2.53,-5.73,-14.65,0,*7B
1499313684.42,3061,17.31,74134.5,2.57,-5.81,-14.61,0,*77
1499313685.64,3062,17.31,74132.3,2.57,-5.81,-14.61,0,*74
1499313686.87,3063,17.31,74136.8,2.57,-5.77,-14.55,0,*7B
1499313688.09,3064,17.31,74136.0,2.57,-5.69,-14.61,0,*74
1499313689.3,3065,17.31,74138.3,2.57,-5.77,-14.69,0,*72
1499313690.52,3066,17.31,74138.0,2.53,-5.81,-14.65,0,*70
1499313691.76,3067,17.31,74138.8,2.57,-5.65,-14.55,0,*7C
1499313692.99,3068,17.31,74136.8,2.57,-5.65,-14.43,0,*74
1499313694.22,3069,17.31,74138.8,2.57,-5.69,-14.43,0,*79
1499313695.47,3070,17.25,74140.3,2.57,-5.65,-14.47,0,*79
1499313696.68,3071,17.25,74140.3,2.57,-5.77,-14.61,0,*7F
1499313697.92,3072,17.31,74146.5,2.57,-5.65,-14.55,0,*78
1499313699.16,3073,17.31,74150.8,2.59,-5.77,-14.61,0,*73
1499313700.4,3074,17.31,74144.5,2.59,-5.89,-14.69,0,*7D
1499313701.61,3075,17.25,74140.0,2.57,-5.77,-14.61,0,*7B
1499313702.82,3076,17.31,74140.8,2.57,-5.81,-14.69,0,*79
1499313704.06,3077,17.31,74138.3,2.59,-5.77,-14.61,0,*77
1499313705.28,3078,17.31,74142.3,2.57,-5.93,-14.89,0,*7A
1499313706.49,3079,17.31,74144.5,2.57,-6.05,-14.97,0,*78
1499313707.71,3080,17.31,74144.3,2.53,-6.09,-15.01,0,*78
1499313708.92,3081,17.31,74144.5,2.57,-6.05,-14.97,0,*7F
1499313710.11,3082,17.31,74144.8,2.57,-6.05,-15.07,0,*74
1499313711.33,3083,17.31,74134.8,2.53,-6.31,-15.35,0,*77
1499313712.55,3084,17.25,74126.5,2.53,-6.35,-15.21,0,*71
1499313713.76,3085,17.31,74130.5,2.57,-6.23,-15.07,0,*77
1499313714.96,3086,17.31,74126.5,2.57,-6.31,-15.29,0,*7B
1499313716.18,3087,17.31,74126.3,2.53,-6.51,-15.39,0,*79
1499313717.4,3088,17.31,74120.5,2.53,-6.43,-15.35,0,*79
1499313718.6,3089,17.31,74122.0,2.57,-6.47,-15.49,0,*73
1499313719.79,3090,17.31,74120.8,2.53,-6.73,-15.63,0,*70
1499313721.0,3091,17.31,74134.0,2.51,-6.69,-15.53,0,*7B
1499313722.22,3092,17.31,74130.3,2.51,-6.77,-15.71,0,*77
1499313723.41,3093,17.31,74128.5,2.49,-6.89,-15.71,0,*7E
1499313724.61,3094,17.31,74126.5,2.49,-6.77,-15.71,0,*78
1499313725.83,3095,17.31,74122.8,2.51,-6.77,-15.53,0,*70
1499313727.05,3096,17.31,74124.8,2.51,-6.69,-15.53,0,*7C
1499313728.29,3097,17.31,74120.3,2.49,-6.63,-15.43,0,*7F
1499313729.48,3098,17.31,74122.5,2.49,-6.69,-15.53,0,*7B
1499313730.71,3099,17.31,74120.8,2.49,-6.77,-15.43,0,*74
1499313731.95,3100,17.31,74124.0,2.49,-6.63,-15.43,0,*70
1499313733.19,3101,17.31,74128.0,2.49,-6.63,-15.43,0,*71
1499313734.4,3102,17.31,74126.5,2.49,-6.63,-15.53,0,*73
1499313735.59,3103,17.31,74132.5,2.49,-6.69,-15.53,0,*78
1499313736.81,3104,17.31,74132.3,2.47,-6.81,-15.63,0,*74
1499313738.05,3105,17.31,74136.8,2.47,-6.73,-15.57,0,*7F
1499313739.29,3106,17.31,74134.0,2.47,-6.69,-15.43,0,*72
1499313740.53,3107,17.31,74132.5,2.47,-6.69,-15.57,0,*76
1499313741.77,3108,17.31,74132.0,2.47,-6.73,-15.57,0,*72
1499313742.98,3109,17.31,74140.3,2.47,-6.73,-15.63,0,*74
1499313744.19,3110,17.31,74132.5,2.47,-6.73,-15.63,0,*7C
1499313745.43,3111,17.31,74132.8,2.47,-6.69,-15.43,0,*74
1499313746.65,3112,17.31,74136.5,2.47,-6.47,-15.29,0,*77
1499313747.88,3113,17.31,74136.3,2.47,-6.55,-15.29,0,*75
1499313749.12,3114,17.31,74136.5,2.47,-6.55,-15.35,0,*7F
1499313750.33,3115,17.31,74138.3,2.47,-6.69,-15.49,0,*7A
1499313751.56,3116,17.31,74128.5,2.47,-6.81,-15.49,0,*7F
1499313752.8,3117,17.31,74128.8,2.47,-6.85,-15.57,0,*75
1499313754.02,3118,17.31,74126.8,2.47,-6.81,-15.63,0,*79
1499313755.26,3119,17.31,74116.5,2.47,-6.81,-15.57,0,*7F
1499313756.48,3120,17.31,74118.5,2.47,-6.73,-15.49,0,*77
1499313757.7,3121,17.31,74118.8,2.47,-6.73,-15.49,0,*76
1499313758.94,3122,17.31,74122.0,2.47,-6.69,-15.43,0,*74
1499313760.18,3123,17.31,74124.3,2.47,-6.73,-15.57,0,*7B
1499313761.38,3124,17.31,74128.0,2.49,-6.77,-15.53,0,*72
1499313762.58,3125,17.31,74130.8,2.49,-6.77,-15.53,0,*73
1499313763.8,3126,17.31,74132.5,2.49,-6.69,-15.43,0,*7E
1499313765.01,3127,17.31,74136.8,2.49,-6.69,-15.43,0,*7F
1499313766.25,3128,17.31,74134.3,2.47,-6.69,-15.57,0,*7B
1499313767.47,3129,17.31,74136.5,2.49,-6.77,-15.43,0,*7E
1499313768.67,3130,17.31,74138.0,2.49,-6.69,-15.53,0,*78
1499313769.86,3131,17.31,74142.5,2.49,-6.69,-15.53,0,*79
1499313771.08,3132,17.31,74144.5,2.49,-6.77,-15.57,0,*71
1499313772.32,3133,17.31,74148.5,2.51,-6.77,-15.57,0,*79
1499313773.57,3134,17.31,74148.3,2.47,-6.93,-15.71,0,*77
1499313774.78,3135,17.31,74146.3,2.47,-6.85,-15.71,0,*71
1499313776.03,3136,17.31,74144.0,2.47,-6.81,-15.57,0,*72
1499313777.24,3137,17.31,74142.8,2.47,-6.85,-15.71,0,*73
1499313778.49,3138,17.31,74144.0,2.47,-6.93,-15.75,0,*7F
1499313779.7,3139,17.31,74142.5,2.47,-6.85,-15.71,0,*7D
1499313780.95,3140,17.31,74142.3,2.47,-6.93,-15.75,0,*70
1499313782.19,3141,17.31,74136.0,2.51,-6.93,-15.71,0,*72
1499313783.44,3142,17.31,74138.3,2.47,-6.93,-15.71,0,*76
1499313784.65,3143,17.31,74136.0,2.47,-6.85,-15.63,0,*73
1499313785.89,3144,17.31,74134.8,2.47,-6.73,-15.57,0,*7A
1499313787.08,3145,17.31,74134.8,2.49,-6.69,-15.53,0,*7A
1499313788.3,3146,17.31,74128.5,2.49,-6.77,-15.57,0,*72
1499313789.52,3147,17.31,74136.5,2.47,-6.85,-15.63,0,*77
1499313790.73,3148,17.31,74132.0,2.47,-6.85,-15.63,0,*78
1499313791.94,3149,17.31,74136.5,2.47,-6.85,-15.63,0,*79
1499313793.19,3150,17.31,74134.3,2.47,-6.93,-15.63,0,*76
1499313794.43,3151,17.31,74134.0,2.47,-6.93,-15.63,0,*77
1499313795.67,3152,17.31,74140.8,2.47,-6.93,-15.71,0,*77
1499313796.87,3153,17.31,74142.8,2.45,-6.85,-15.71,0,*73
1499313798.11,3154,17.31,74142.3,2.47,-6.93,-15.71,0,*71
1499313799.3,3155,17.31,74142.8,2.49,-6.89,-15.67,0,*72
1499313800.49,3156,17.31,74148.3,2.49,-6.81,-15.67,0,*79
1499313801.71,3157,17.31,74150.5,2.49,-6.81,-15.57,0,*7B
1499313802.93,3158,17.31,74150.5,2.49,-7.01,-15.71,0,*79
1499313804.12,3159,17.31,74146.5,2.49,-7.15,-15.99,0,*7B
1499313805.31,3160,17.31,74142.3,2.49,-7.23,-15.99,0,*74
1499313806.52,3161,17.31,74134.3,2.47,-7.23,-15.99,0,*7B
1499313807.76,3162,17.31,74134.0,2.47,-7.23,-15.89,0,*79
1499313809.01,3163,17.31,74126.8,2.47,-7.11,-15.85,0,*75
1499313810.25,3164,17.31,74132.8,2.47,-6.85,-15.57,0,*71
1499313811.49,3165,17.31,74138.5,2.47,-6.93,-15.71,0,*73
1499313812.74,3166,17.31,74134.3,2.47,-7.19,-15.85,0,*78
1499313813.98,3167,17.31,74138.8,2.49,-7.05,-15.85,0,*7A
1499313815.23,3168,17.31,74142.0,2.47,-7.11,-15.85,0,*7E
1499313816.47,3169,17.31,74146.3,2.47,-7.19,-15.89,0,*7B
1499313817.72,3170,17.31,74142.8,2.47,-7.19,-15.89,0,*73
1499313818.96,3171,17.31,74146.3,2.47,-7.11,-15.89,0,*7A
1499313820.2,3172,17.31,74146.8,2.49,-7.05,-15.85,0,*7E
1499313821.45,3173,17.31,74148.3,2.47,-7.19,-15.85,0,*7C
1499313822.66,3174,17.31,74152.5,2.47,-7.19,-16.03,0,*76
1499313823.88,3175,17.31,74154.3,2.47,-7.19,-16.03,0,*77
1499313825.1,3176,17.31,74160.0,2.47,-7.19,-15.99,0,*74
1499313826.31,3177,17.31,74162.3,2.47,-7.23,-16.03,0,*7C
1499313827.53,3178,17.31,74156.8,2.47,-7.19,-15.99,0,*7A
1499313828.75,3179,17.31,74154.0,2.47,-7.19,-15.99,0,*7B
1499313829.97,3180,17.31,74152.8,2.47,-7.19,-16.03,0,*7D
1499313831.18,3181,17.31,74150.5,2.47,-7.19,-15.99,0,*7C
1499313832.43,3182,17.31,74146.8,2.47,-7.19,-16.17,0,*7A
1499313833.69,3183,17.31,74146.0,2.47,-7.35,-16.23,0,*72
1499313834.96,3184,17.31,74144.8,2.47,-7.27,-16.17,0,*71
1499313836.2,3185,17.31,74142.0,2.45,-7.27,-16.13,0,*76
1499313837.41,3186,17.31,74140.8,2.45,-7.49,-16.23,0,*7E
1499313838.67,3187,17.31,74134.0,2.47,-7.35,-16.23,0,*76
1499313839.91,3188,17.31,74134.5,2.45,-7.35,-16.31,0,*78
1499313841.15,3189,17.31,74138.5,2.45,-7.35,-16.23,0,*7A
1499313842.39,3190,17.31,74134.5,2.45,-7.35,-16.23,0,*72
1499313843.63,3191,17.31,74138.8,2.45,-7.35,-16.23,0,*73
1499313844.84,3192,17.31,74140.0,2.45,-7.23,-16.13,0,*74
1499313846.08,3193,17.31,74142.5,2.45,-7.27,-16.13,0,*71
1499313847.3,3194,17.31,74136.8,2.45,-7.23,-16.13,0,*72
1499313848.54,3195,17.31,74130.8,2.45,-7.27,-16.17,0,*73
1499313849.78,3196,17.31,74130.5,2.45,-7.35,-16.23,0,*74
1499313851.02,3197,17.31,74128.0,2.45,-7.39,-16.31,0,*7A
1499313852.25,3198,17.31,74132.8,2.45,-7.27,-16.13,0,*7A
1499313853.52,3199,17.31,74134.3,2.43,-7.39,-16.23,0,*71
1499313854.78,3200,17.31,74134.3,2.43,-7.31,-16.23,0,*7A
1499313856.06,3201,17.31,74128.0,2.43,-7.31,-16.17,0,*7C
1499313857.32,3202,17.31,74130.8,2.43,-7.27,-16.23,0,*7F
1499313858.54,3203,17.31,74128.5,2.45,-7.23,-16.13,0,*7F
1499313859.76,3204,17.31,74134.8,2.45,-7.23,-16.13,0,*78
1499313860.98,3205,17.31,74134.0,2.45,-7.23,-16.13,0,*79
1499313862.2,3206,17.31,74130.3,2.45,-7.23,-16.17,0,*7E
1499313863.44,3207,17.31,74136.0,2.45,-7.27,-16.13,0,*7F
1499313864.68,3208,17.31,74136.3,2.45,-7.27,-16.13,0,*70
1499313865.89,3209,17.31,74138.8,2.45,-7.23,-16.13,0,*75
1499313867.11,3210,17.31,74136.5,2.45,-7.23,-16.17,0,*79
1499313868.35,3211,17.31,74136.0,2.45,-7.27,-16.17,0,*7C
1499313869.63,3212,17.31,74132.5,2.43,-7.27,-16.17,0,*79
1499313870.85,3213,17.31,74138.5,2.45,-7.23,-16.17,0,*7A
1499313872.11,3214,17.31,74136.3,2.43,-7.27,-16.23,0,*78
1499313873.38,3215,17.31,74138.8,2.43,-7.27,-16.23,0,*79
1499313874.6,3216,17.31,74140.8,2.45,-7.23,-16.17,0,*7F
1499313875.84,3217,17.31,74144.8,2.45,-7.27,-16.13,0,*7E
1499313877.11,3218,17.31,74140.8,2.43,-7.31,-16.27,0,*77
1499313878.38,3219,17.31,74132.3,2.43,-7.27,-16.27,0,*71
1499313879.64,3220,17.31,74130.5,2.43,-7.27,-16.27,0,*7B
1499313880.91,3221,17.31,74130.5,2.43,-7.27,-16.27,0,*7A
1499313882.13,3222,17.31,74128.8,2.43,-7.23,-16.37,0,*7C
1499313883.38,3223,17.31,74136.8,2.43,-7.23,-16.27,0,*7C
1499313884.59,3224,17.31,74136.0,2.45,-7.23,-16.31,0,*7A
1499313885.83,3225,17.31,74140.0,2.45,-7.27,-16.23,0,*7C
1499313887.06,3226,17.31,74140.3,2.47,-7.23,-16.31,0,*7A
1499313888.3,3227,17.31,74148.0,2.45,-7.27,-16.31,0,*7D
1499313889.51,3228,17.31,74140.0,2.45,-7.39,-16.45,0,*7E
1499313890.7,3229,17.31,74134.8,2.45,-7.49,-16.59,0,*75
1499313891.96,3230,17.31,74138.3,2.43,-7.39,-16.51,0,*74
1499313893.21,3231,17.31,74134.5,2.43,-7.43,-16.55,0,*7C
1499313894.48,3232,17.31,74136.5,2.43,-7.43,-16.65,0,*7C
1499313895.72,3233,17.31,74138.3,2.43,-7.39,-16.55,0,*73
1499313896.96,3234,17.31,74142.8,2.43,-7.39,-16.55,0,*74
1499313898.23,3235,17.31,74134.0,2.43,-7.43,-16.65,0,*7B
1499313899.44,3236,17.31,74136.5,2.45,-7.53,-16.65,0,*7F
1499313900.69,3237,17.31,74140.3,2.43,-7.43,-16.55,0,*7A
1499313901.96,3238,17.31,74138.8,2.43,-7.43,-16.65,0,*76
1499313903.21,3239,17.31,74128.8,2.43,-7.53,-16.69,0,*7A
1499313904.48,3240,17.31,74126.0,2.43,-7.57,-16.69,0,*70
1499313905.69,3241,17.31,74122.0,2.45,-7.49,-16.65,0,*74
1499313906.89,3242,17.31,74124.5,2.41,-7.53,-16.79,0,*75
1499313908.11,3243,17.31,74128.3,2.41,-7.57,-16.83,0,*75
1499313909.36,3244,17.31,74132.8,2.43,-7.57,-16.79,0,*75
1499313910.59,3245,17.31,74130.3,2.41,-7.57,-16.79,0,*76
1499313911.86,3246,17.31,74134.3,2.43,-7.43,-16.69,0,*73
1499313913.08,3247,17.31,74132.3,2.43,-7.53,-16.83,0,*77
1499313914.32,3248,17.31,74136.8,2.45,-7.39,-16.65,0,*7A
1499313915.55,3249,17.31,74142.0,2.41,-7.39,-16.69,0,*73
1499313916.82,3250,17.31,74142.3,2.43,-7.43,-16.69,0,*74
1499313918.07,3251,17.31,74138.8,2.45,-7.43,-16.65,0,*7F
1499313919.31,3252,17.31,74138.5,2.41,-7.43,-16.69,0,*74
1499313920.58,3253,17.31,74138.5,2.43,-7.39,-16.69,0,*7A
1499313921.85,3254,17.31,74132.8,2.43,-7.43,-16.69,0,*70
1499313923.08,3255,17.31,74134.0,2.41,-7.39,-16.69,0,*7E
1499313924.35,3256,17.31,74138.0,2.43,-7.39,-16.69,0,*7F
1499313925.62,3257,17.31,74134.5,2.43,-7.43,-16.69,0,*73
1499313926.84,3258,17.31,74130.0,2.41,-7.53,-16.69,0,*7F
1499313928.07,3259,17.31,74130.8,2.45,-7.39,-16.65,0,*7A
1499313929.3,3260,17.31,74134.5,2.41,-7.57,-16.79,0,*71
1499313930.52,3261,17.31,74130.8,2.41,-7.65,-16.83,0,*74
1499313931.75,3262,17.31,74132.8,2.41,-7.57,-16.83,0,*76
1499313932.99,3263,17.31,74140.3,2.41,-7.39,-16.69,0,*7B
1499313934.22,3264,17.31,74138.0,2.41,-7.39,-16.69,0,*7C
1499313935.45,3265,17.31,74134.5,2.41,-7.43,-16.79,0,*71
1499313936.64,3266,17.31,74134.5,2.41,-7.53,-16.79,0,*73
1499313937.86,3267,17.31,74132.0,2.41,-7.53,-16.69,0,*73
1499313939.13,3268,17.31,74134.0,2.43,-7.43,-16.69,0,*7F
1499313940.4,3269,17.31,74138.3,2.43,-7.43,-16.69,0,*7E
1499313941.65,3270,17.31,74136.5,2.41,-7.43,-16.69,0,*74
1499313942.87,3271,17.31,74138.3,2.41,-7.43,-16.79,0,*74
1499313944.09,3272,17.31,74144.3,2.41,-7.57,-16.79,0,*72
1499313945.31,3273,17.31,74146.5,2.41,-7.53,-16.69,0,*76
1499313946.55,3274,17.31,74154.8,2.41,-7.39,-16.69,0,*7D
1499313947.79,3275,17.31,74150.0,2.41,-7.39,-16.69,0,*7C
1499313949.03,3276,17.31,74150.3,2.41,-7.39,-16.69,0,*7F
1499313950.28,3277,17.31,74144.8,2.43,-7.57,-16.83,0,*70
1499313951.5,3278,17.31,74146.0,2.41,-7.65,-16.83,0,*7C
1499313952.74,3279,17.31,74142.0,2.43,-7.65,-16.93,0,*7E
1499313953.96,3280,17.31,74138.8,2.41,-7.83,-17.11,0,*79
1499313955.18,3281,17.31,74136.5,2.41,-7.83,-17.11,0,*78
1499313956.44,3282,17.31,74126.8,2.41,-7.77,-17.07,0,*77
1499313957.69,3283,17.31,74126.3,2.41,-7.77,-17.07,0,*76
1499313958.93,3284,17.31,74124.3,2.41,-7.77,-17.11,0,*76
1499313960.17,3285,17.31,74130.3,2.41,-7.77,-17.17,0,*71
1499313961.42,3286,17.31,74132.0,2.41,-7.77,-17.07,0,*73
1499313962.66,3287,17.31,74132.3,2.39,-7.83,-17.11,0,*71
1499313963.9,3288,17.31,74124.5,2.39,-7.83,-17.21,0,*7D
1499313965.14,3289,17.31,74122.5,2.39,-7.95,-17.31,0,*7A
1499313966.41,3290,17.31,74118.8,2.39,-7.73,-17.17,0,*7E
1499313967.64,3291,17.31,74120.5,2.39,-7.83,-17.17,0,*70
1499313968.88,3292,17.31,74116.5,2.39,-7.83,-17.21,0,*76
1499313970.09,3293,17.31,74114.0,2.39,-7.87,-17.31,0,*72
1499313971.33,3294,17.31,74112.8,2.39,-7.87,-17.21,0,*74
1499313972.6,3295,17.31,74108.0,2.39,-7.95,-17.21,0,*76
1499313973.82,3296,17.31,74112.0,2.37,-7.87,-17.21,0,*78
1499313975.04,3297,17.31,74112.8,2.37,-7.87,-17.21,0,*79
1499313976.27,3298,17.31,74118.3,2.39,-7.83,-17.21,0,*7C
1499313977.46,3299,17.31,74118.3,2.37,-7.87,-17.31,0,*76
1499313978.71,3300,17.31,74122.3,2.37,-7.91,-17.41,0,*77
1499313979.92,3301,17.31,74116.8,2.37,-7.87,-17.25,0,*73
1499313981.19,3302,17.31,74118.3,2.39,-7.69,-17.03,0,*7A
1499313982.45,3303,17.31,74116.5,2.39,-7.69,-17.03,0,*7B
1499313983.69,3304,17.31,74120.5,2.37,-7.91,-17.17,0,*70
1499313984.93,3305,17.31,74124.5,2.39,-7.83,-17.21,0,*79
1499313986.19,3306,17.31,74130.8,2.39,-7.69,-17.11,0,*7D
1499313987.43,3307,17.31,74130.0,2.37,-7.77,-17.17,0,*7B
1499313988.7,3308,17.31,74126.8,2.39,-7.73,-17.11,0,*78
1499313989.94,3309,17.31,74124.0,2.39,-7.87,-17.11,0,*72
1499313991.18,3310,17.31,74126.5,2.39,-7.87,-17.21,0,*79
1499313992.4,3311,17.31,74130.3,2.37,-7.87,-17.21,0,*76
1499313993.67,3312,17.31,74130.8,2.39,-7.69,-17.03,0,*7B
1499313994.92,3313,17.31,74130.8,2.37,-7.73,-17.07,0,*7B
1499313996.19,3314,17.31,74134.8,2.39,-7.73,-17.03,0,*76
1499313997.43,3315,17.31,74126.3,2.39,-7.87,-17.21,0,*7C
1499313998.67,3316,17.31,74124.8,2.39,-7.87,-17.21,0,*7F
1499313999.94,3317,17.31,74130.5,2.39,-7.73,-17.03,0,*75
1499314001.22,3318,17.31,74134.8,2.39,-7.73,-17.03,0,*7A
1499314002.43,3319,17.31,74144.5,2.39,-7.83,-17.31,0,*75
1499314003.69,3320,17.31,74140.5,2.39,-8.11,-17.59,0,*75
1499314004.91,3321,17.31,74132.0,2.37,-8.17,-17.63,0,*75
1499314006.13,3322,17.31,74130.3,2.37,-8.21,-17.55,0,*76
1499314007.38,3323,17.31,74136.3,2.37,-8.11,-17.41,0,*71
1499314008.62,3324,17.31,74120.8,2.39,-8.11,-17.35,0,*7B
1499314009.87,3325,17.31,74118.3,2.37,-8.11,-17.25,0,*75
1499314011.11,3326,17.31,74124.3,2.37,-8.11,-17.25,0,*76
1499314012.33,3327,17.31,74120.8,2.37,-8.17,-17.25,0,*71
1499314013.6,3328,17.31,74118.0,2.39,-8.07,-17.17,0,*70
1499314014.82,3329,17.31,74126.3,2.37,-8.17,-17.21,0,*7B
1499314016.03,3330,17.31,74122.5,2.37,-8.21,-17.25,0,*72
1499314017.25,3331,17.31,74120.0,2.37,-8.21,-17.17,0,*72
1499314018.47,3332,17.31,74120.0,2.37,-8.21,-17.03,0,*74
1499314019.66,3333,17.31,74116.0,2.37,-8.17,-16.89,0,*73
1499314020.85,3334,17.31,74120.8,2.37,-8.17,-16.93,0,*7F
1499314022.04,3335,17.31,74130.0,2.37,-8.17,-16.89,0,*75
1499314023.24,3336,17.31,74128.3,2.37,-8.17,-16.79,0,*79
1499314024.43,3337,17.31,74128.8,2.37,-8.17,-16.79,0,*78
1499314025.62,3338,17.31,74130.5,2.37,-8.17,-16.89,0,*78
1499314026.81,3339,17.31,74134.3,2.37,-8.29,-16.93,0,*7F
1499314028.0,3340,17.31,74132.8,2.37,-8.21,-16.89,0,*72
1499314029.19,3341,17.31,74128.0,2.37,-8.21,-16.93,0,*78
1499314030.38,3342,17.31,74120.0,2.37,-8.29,-16.93,0,*73
1499314031.59,3343,17.31,74130.0,2.37,-8.29,-17.21,0,*7A
1499314032.81,3344,17.31,74126.8,2.37,-8.21,-17.21,0,*75
1499314034.03,3345,17.31,74122.0,2.35,-8.17,-17.21,0,*73
1499314035.24,3346,17.31,74120.0,2.35,-8.29,-17.55,0,*7E
1499314036.42,3347,17.31,74120.0,2.35,-8.21,-17.49,0,*7A
1499314037.64,3348,17.31,74122.5,2.35,-8.21,-17.55,0,*78
1499314038.88,3349,17.31,74122.8,2.33,-8.25,-17.55,0,*7B
1499314040.09,3350,17.31,74110.5,2.35,-8.11,-17.49,0,*7F
1499314041.33,3351,17.31,74110.5,2.33,-8.21,-17.55,0,*76
1499314042.55,3352,17.31,74114.3,2.35,-8.17,-17.63,0,*73
1499314043.74,3353,17.31,74118.8,2.35,-8.17,-17.69,0,*78
1499314044.95,3354,17.31,74112.0,2.35,-8.17,-17.79,0,*7E
1499314046.15,3355,17.31,74114.0,2.37,-8.17,-17.69,0,*7C
1499314047.34,3356,17.31,74116.8,2.35,-8.17,-17.69,0,*7D
1499314048.53,3357,17.31,74116.8,2.35,-8.17,-17.69,0,*7C
1499314049.72,3358,17.31,74112.5,2.35,-8.17,-17.69,0,*73
1499314050.93,3359,17.31,74120.0,2.35,-8.17,-17.63,0,*78
1499314052.13,3360,17.31,74122.8,2.37,-8.17,-17.69,0,*7A
1499314053.32,3361,17.31,74122.3,2.35,-8.29,-17.83,0,*70
1499314054.53,3362,17.31,74128.3,2.35,-8.29,-17.79,0,*76
1499314055.72,3363,17.31,74128.3,2.35,-8.21,-17.69,0,*7E
1499314056.9,3364,17.31,74126.0,2.35,-8.33,-17.69,0,*7A
1499314058.11,3365,17.31,74124.3,2.35,-8.33,-17.79,0,*7A
1499314059.32,3366,17.31,74122.5,2.35,-8.41,-17.79,0,*7C
1499314060.54,3367,17.31,74120.8,2.35,-8.41,-17.79,0,*7D
1499314061.73,3368,17.31,74120.3,2.35,-8.41,-17.69,0,*73
1499314062.91,3369,17.31,74120.5,2.35,-8.33,-17.69,0,*77
1499314064.1,3370,17.31,74116.8,2.35,-8.33,-17.69,0,*7F
1499314065.31,3371,17.31,74120.8,2.37,-8.33,-17.63,0,*76
1499314066.53,3372,17.31,74120.5,2.33,-8.37,-17.69,0,*7F
1499314067.74,3373,17.31,74122.5,2.35,-8.29,-17.63,0,*7D
1499314068.95,3374,17.31,74126.8,2.37,-8.33,-17.63,0,*73
1499314070.17,3375,17.31,74126.8,2.37,-8.29,-17.63,0,*79
1499314071.35,3376,17.31,74130.0,2.35,-8.29,-17.49,0,*70
1499314072.56,3377,17.31,74134.5,2.35,-8.29,-17.63,0,*79
1499314073.78,3378,17.31,74138.8,2.35,-8.21,-17.55,0,*7B
1499314075.02,3379,17.31,74132.8,2.33,-8.25,-17.55,0,*78
1499314076.23,3380,17.31,74132.0,2.35,-8.29,-17.63,0,*71
1499314077.42,3381,17.31,74132.3,2.37,-8.33,-17.69,0,*73
1499314078.61,3382,17.31,74136.5,2.37,-8.45,-17.69,0,*71
1499314079.83,3383,17.31,74138.0,2.37,-8.29,-17.55,0,*75
1499314081.04,3384,17.31,74138.5,2.37,-8.33,-17.55,0,*79
1499314082.25,3385,17.31,74132.8,2.37,-8.33,-17.55,0,*78
1499314083.47,3386,17.31,74128.8,2.35,-8.41,-17.63,0,*79
1499314084.68,3387,17.31,74126.3,2.37,-8.33,-17.63,0,*7F
1499314085.87,3388,17.31,74130.0,2.37,-8.21,-17.49,0,*7B
1499314087.06,3389,17.31,74134.3,2.37,-8.29,-17.49,0,*72
1499314088.28,3390,17.31,74128.3,2.37,-8.41,-17.63,0,*7C
1499314089.5,3391,17.31,74126.3,2.37,-8.41,-17.63,0,*7D
1499314090.72,3392,17.31,74130.5,2.37,-8.41,-17.63,0,*7E
1499314091.96,3393,17.31,74132.3,2.39,-8.41,-17.63,0,*71
1499314093.15,3394,17.31,74140.0,2.37,-8.45,-17.69,0,*76
1499314094.37,3395,17.31,74142.0,2.37,-8.33,-17.63,0,*7C
1499314095.58,3396,17.31,74138.3,2.37,-8.33,-17.55,0,*7A
1499314096.8,3397,17.31,74134.5,2.37,-8.41,-17.55,0,*7E
1499314098.04,3398,17.31,74136.5,2.39,-8.37,-17.59,0,*72
1499314099.29,3399,17.31,74134.8,2.39,-8.37,-17.59,0,*73
1499314100.55,3400,17.31,74140.0,2.39,-8.51,-17.63,0,*7D
1499314101.79,3401,17.31,74140.3,2.39,-8.41,-17.63,0,*7D
1499314102.99,3402,17.31,74140.3,2.37,-8.55,-17.69,0,*7F
1499314104.18,3403,17.31,74142.5,2.35,-8.55,-17.69,0,*7C
1499314105.38,3404,17.31,74144.8,2.37,-8.45,-17.69,0,*78
1499314106.6,3405,17.31,74142.0,2.37,-8.67,-17.97,0,*78
1499314107.8,3406,17.31,74134.5,2.37,-8.71,-18.07,0,*7A
1499314109.01,3407,17.31,74132.8,2.37,-8.85,-18.11,0,*77
1499314110.22,3408,17.31,74132.8,2.35,-8.67,-17.93,0,*73
1499314111.41,3409,17.31,74132.8,2.35,-8.71,-18.07,0,*77
1499314112.65,3410,17.31,74124.3,2.35,-8.81,-17.97,0,*76
1499314113.85,3411,17.31,74118.5,2.35,-8.67,-17.83,0,*7A
1499314115.06,3412,17.31,74110.8,2.35,-8.67,-17.79,0,*7C
1499314116.27,3413,17.31,74112.8,2.35,-8.67,-17.93,0,*79